Погода в Дубянах

Россия / Костромская область     58°04′33″N   42°20′26″E
темп.,
°C
ветер,
м/с
пор.,
м/с
влажн.,
%
обл.,
%
осадки,
мм/ч
давл.,
гПа
погр.,
м
27 октября, ср
ср2700:00+1юз3109397 0.0 1014363
03:000юз3995100 0.0 1014305
06:000юз31095100 0.0 1013320
09:00+1ююз41189100 0.0 1011463
12:00+3юз41283100 0.0 1009581
15:00+3юз51281100 0.0 1007766
18:00+2зюз51297100 1.4 1007813
21:00+4з51395100 1.6 1006885
28 октября, чт
чт2800:00+5з51193100 0.1 1007846
03:00+5з4109089 0.2 1008721
06:00+4зюз4108895 0.1 1008482
09:00+4юз3790100 0.1 1008357
12:00+5зюз2391100 0.3 1009719
15:00+4ссз2595100 1.1 1010807
18:00+3ссв4987100 0.1 1015676
21:00−2ссв411815 0.1 1020608
29 октября, пт
пт2900:00−3ссв39815 0.0 1024524
03:00−3с26815 0.0 1027351
06:00−3св1283100 0.0 1029143
09:00−2ююв2369100 0.0 1030256
12:000ююз3651100 0.0 1030564
15:00+1ююз41155100 0.0 1028632
18:00+1ююз51557100 0.4 1026617
21:00+2юз51572100 0.4 1024653
30 октября, сб
сб3000:00+3зюз5149197 0.0 1023539
03:00+3зюз4149697 0.0 1023490
06:00+4зюз41496100 0.0 1023465
09:00+5зюз4149590 0.0 1023481
12:00+7зюз41389100 0.0 1024534
15:00+7зюз413865 0.0 1024529
18:00+5зюз4138834 0.0 1024364
21:00+4зюз3128959 0.0 1025315
31 октября, вс
вс3100:00+3юз3129297 0.0 1025293
03:00+3юз31291100 0.0 1024339
06:00+3юз4129285 0.0 1023343
09:00+4юз413895 0.0 1023456
12:00+7юз512805 0.0 1022525
15:00+7зюз4118122 0.0 1022575
18:00+6юз4129114 0.0 1022412
21:00+5юз31194100 0.0 1023357